Year,Month,Day,Hour,Minute,Value (Times are PST for temperature in C)
2015,05,18,00,00,12.80
2015,05,18,00,01,12.70
2015,05,18,00,02,12.70
2015,05,18,00,03,12.70
2015,05,18,00,04,12.70
2015,05,18,00,05,12.70
2015,05,18,00,06,12.70
2015,05,18,00,07,12.70
2015,05,18,00,08,12.70
2015,05,18,00,09,12.70
2015,05,18,00,10,12.60
2015,05,18,00,11,12.60
2015,05,18,00,12,12.60
2015,05,18,00,13,12.60
2015,05,18,00,14,12.60
2015,05,18,00,15,12.60
2015,05,18,00,16,12.60
2015,05,18,00,17,12.50
2015,05,18,00,18,12.50
2015,05,18,00,19,12.50
2015,05,18,00,20,12.50
2015,05,18,00,21,12.50
2015,05,18,00,22,12.40
2015,05,18,00,23,12.40
2015,05,18,00,24,12.40
2015,05,18,00,25,12.40
2015,05,18,00,26,12.40
2015,05,18,00,27,12.40
2015,05,18,00,28,12.40
2015,05,18,00,29,12.30
2015,05,18,00,30,12.30
2015,05,18,00,31,12.30
2015,05,18,00,32,12.30
2015,05,18,00,33,12.30
2015,05,18,00,34,12.30
2015,05,18,00,35,12.30
2015,05,18,00,36,12.30
2015,05,18,00,37,12.30
2015,05,18,00,38,12.20
2015,05,18,00,39,12.20
2015,05,18,00,40,12.20
2015,05,18,00,41,12.20
2015,05,18,00,42,12.20
2015,05,18,00,43,12.10
2015,05,18,00,44,12.10
2015,05,18,00,45,12.10
2015,05,18,00,46,12.10
2015,05,18,00,47,12.10
2015,05,18,00,48,12.10
2015,05,18,00,49,12.00
2015,05,18,00,50,12.00
2015,05,18,00,51,12.00
2015,05,18,00,52,11.90
2015,05,18,00,53,11.90
2015,05,18,00,54,11.90
2015,05,18,00,55,11.90
2015,05,18,00,56,11.80
2015,05,18,00,57,11.80
2015,05,18,00,58,11.80
2015,05,18,00,59,11.80
2015,05,18,01,00,11.80
2015,05,18,01,01,11.80
2015,05,18,01,02,11.80
2015,05,18,01,03,11.80
2015,05,18,01,04,11.80
2015,05,18,01,05,11.80
2015,05,18,01,06,11.70
2015,05,18,01,07,11.70
2015,05,18,01,08,11.70
2015,05,18,01,09,11.70
2015,05,18,01,10,11.70
2015,05,18,01,11,11.70
2015,05,18,01,12,11.70
2015,05,18,01,13,11.60
2015,05,18,01,14,11.60
2015,05,18,01,15,11.60
2015,05,18,01,16,11.60
2015,05,18,01,17,11.60
2015,05,18,01,18,11.60
2015,05,18,01,19,11.60
2015,05,18,01,20,11.60
2015,05,18,01,21,11.60
2015,05,18,01,22,11.60
2015,05,18,01,23,11.60
2015,05,18,01,24,11.60
2015,05,18,01,25,11.60
2015,05,18,01,26,11.60
2015,05,18,01,27,11.60
2015,05,18,01,28,11.60
2015,05,18,01,29,11.60
2015,05,18,01,30,11.60
2015,05,18,01,31,11.60
2015,05,18,01,32,11.60
2015,05,18,01,33,11.60
2015,05,18,01,34,11.70
2015,05,18,01,35,11.70
2015,05,18,01,36,11.80
2015,05,18,01,37,11.80
2015,05,18,01,38,11.80
2015,05,18,01,39,11.80
2015,05,18,01,40,11.80
2015,05,18,01,41,11.90
2015,05,18,01,42,11.90
2015,05,18,01,43,11.90
2015,05,18,01,44,11.90
2015,05,18,01,45,11.90
2015,05,18,01,46,11.90
2015,05,18,01,47,11.90
2015,05,18,01,48,11.90
2015,05,18,01,49,12.00
2015,05,18,01,50,12.00
2015,05,18,01,51,12.00
2015,05,18,01,52,12.00
2015,05,18,01,53,11.90
2015,05,18,01,54,11.90
2015,05,18,01,55,11.90
2015,05,18,01,56,11.90
2015,05,18,01,57,11.90
2015,05,18,01,58,11.90
2015,05,18,01,59,11.90
2015,05,18,02,00,11.90
2015,05,18,02,01,11.90
2015,05,18,02,02,11.90
2015,05,18,02,03,11.90
2015,05,18,02,04,11.90
2015,05,18,02,05,12.00
2015,05,18,02,06,12.00
2015,05,18,02,07,12.00
2015,05,18,02,08,12.00
2015,05,18,02,09,11.90
2015,05,18,02,10,11.90
2015,05,18,02,11,11.90
2015,05,18,02,12,11.80
2015,05,18,02,13,11.80
2015,05,18,02,14,11.80
2015,05,18,02,15,11.80
2015,05,18,02,16,11.80
2015,05,18,02,17,11.80
2015,05,18,02,18,11.80
2015,05,18,02,19,11.80
2015,05,18,02,20,11.80
2015,05,18,02,21,11.90
2015,05,18,02,22,11.90
2015,05,18,02,23,11.90
2015,05,18,02,24,11.90
2015,05,18,02,25,11.90
2015,05,18,02,26,11.80
2015,05,18,02,27,11.80
2015,05,18,02,28,11.80
2015,05,18,02,29,11.80
2015,05,18,02,30,11.80
2015,05,18,02,31,11.70
2015,05,18,02,32,11.70
2015,05,18,02,33,11.70
2015,05,18,02,34,11.70
2015,05,18,02,35,11.70
2015,05,18,02,36,11.70
2015,05,18,02,37,11.70
2015,05,18,02,38,11.70
2015,05,18,02,39,11.70
2015,05,18,02,40,11.70
2015,05,18,02,41,11.70
2015,05,18,02,42,11.70
2015,05,18,02,43,11.70
2015,05,18,02,44,11.70
2015,05,18,02,45,11.70
2015,05,18,02,46,11.70
2015,05,18,02,47,11.70
2015,05,18,02,48,11.70
2015,05,18,02,49,11.80
2015,05,18,02,50,11.80
2015,05,18,02,51,11.80
2015,05,18,02,52,11.80
2015,05,18,02,53,11.80
2015,05,18,02,54,11.80
2015,05,18,02,55,11.80
2015,05,18,02,56,11.70
2015,05,18,02,57,11.70
2015,05,18,02,58,11.70
2015,05,18,02,59,11.70
2015,05,18,03,00,11.70
2015,05,18,03,01,11.70
2015,05,18,03,02,11.70
2015,05,18,03,03,11.70
2015,05,18,03,04,11.70
2015,05,18,03,05,11.70
2015,05,18,03,06,11.70
2015,05,18,03,07,11.70
2015,05,18,03,08,11.70
2015,05,18,03,09,11.70
2015,05,18,03,10,11.60
2015,05,18,03,11,11.60
2015,05,18,03,12,11.50
2015,05,18,03,13,11.50
2015,05,18,03,14,11.40
2015,05,18,03,15,11.30
2015,05,18,03,16,11.30
2015,05,18,03,17,11.30
2015,05,18,03,18,11.20
2015,05,18,03,19,11.20
2015,05,18,03,20,11.20
2015,05,18,03,21,11.20
2015,05,18,03,22,11.20
2015,05,18,03,23,11.20
2015,05,18,03,24,11.20
2015,05,18,03,25,11.20
2015,05,18,03,26,11.20
2015,05,18,03,27,11.20
2015,05,18,03,28,11.20
2015,05,18,03,29,11.20
2015,05,18,03,30,11.20
2015,05,18,03,31,11.20
2015,05,18,03,32,11.20
2015,05,18,03,33,11.30
2015,05,18,03,34,11.30
2015,05,18,03,35,11.30
2015,05,18,03,36,11.30
2015,05,18,03,37,11.30
2015,05,18,03,38,11.30
2015,05,18,03,39,11.30
2015,05,18,03,40,11.30
2015,05,18,03,41,11.30
2015,05,18,03,42,11.30
2015,05,18,03,43,11.30
2015,05,18,03,44,11.30
2015,05,18,03,45,11.20
2015,05,18,03,46,11.20
2015,05,18,03,47,11.20
2015,05,18,03,48,11.20
2015,05,18,03,49,11.20
2015,05,18,03,50,11.10
2015,05,18,03,51,11.10
2015,05,18,03,52,11.10
2015,05,18,03,53,11.10
2015,05,18,03,54,11.00
2015,05,18,03,55,11.00
2015,05,18,03,56,10.90
2015,05,18,03,57,10.90
2015,05,18,03,58,10.80
2015,05,18,03,59,10.80
2015,05,18,04,00,10.80
2015,05,18,04,01,10.80
2015,05,18,04,02,10.80
2015,05,18,04,03,10.70
2015,05,18,04,04,10.70
2015,05,18,04,05,10.70
2015,05,18,04,06,10.70
2015,05,18,04,07,10.70
2015,05,18,04,08,10.70
2015,05,18,04,09,10.70
2015,05,18,04,10,10.60
2015,05,18,04,11,10.60
2015,05,18,04,12,10.60
2015,05,18,04,13,10.60
2015,05,18,04,14,10.60
2015,05,18,04,15,10.60
2015,05,18,04,16,10.60
2015,05,18,04,17,10.60
2015,05,18,04,18,10.60
2015,05,18,04,19,10.60
2015,05,18,04,20,10.70
2015,05,18,04,21,10.70
2015,05,18,04,22,10.70
2015,05,18,04,23,10.70
2015,05,18,04,24,10.70
2015,05,18,04,25,10.70
2015,05,18,04,26,10.70
2015,05,18,04,27,10.70
2015,05,18,04,28,10.70
2015,05,18,04,29,10.70
2015,05,18,04,30,10.70
2015,05,18,04,31,10.70
2015,05,18,04,32,10.70
2015,05,18,04,33,10.70
2015,05,18,04,34,10.70
2015,05,18,04,35,10.70
2015,05,18,04,36,10.70
2015,05,18,04,37,10.70
2015,05,18,04,38,10.70
2015,05,18,04,39,10.70
2015,05,18,04,40,10.70
2015,05,18,04,41,10.70
2015,05,18,04,42,10.70
2015,05,18,04,43,10.70
2015,05,18,04,44,10.70
2015,05,18,04,45,10.70
2015,05,18,04,46,10.70
2015,05,18,04,47,10.70
2015,05,18,04,48,10.70
2015,05,18,04,49,10.70
2015,05,18,04,50,10.70
2015,05,18,04,51,10.70
2015,05,18,04,52,10.70
2015,05,18,04,53,10.70
2015,05,18,04,54,10.70
2015,05,18,04,55,10.70
2015,05,18,04,56,10.70
2015,05,18,04,57,10.70
2015,05,18,04,58,10.70
2015,05,18,04,59,10.70
2015,05,18,05,00,10.80
2015,05,18,05,01,10.80
2015,05,18,05,02,10.80
2015,05,18,05,03,10.80
2015,05,18,05,04,10.80
2015,05,18,05,05,10.80
2015,05,18,05,06,10.80
2015,05,18,05,07,10.80
2015,05,18,05,08,10.80
2015,05,18,05,09,10.80
2015,05,18,05,10,10.90
2015,05,18,05,11,10.90
2015,05,18,05,12,10.90
2015,05,18,05,13,10.90
2015,05,18,05,14,10.90
2015,05,18,05,15,10.90
2015,05,18,05,16,11.00
2015,05,18,05,17,11.00
2015,05,18,05,18,11.00
2015,05,18,05,19,11.10
2015,05,18,05,20,11.10
2015,05,18,05,21,11.10
2015,05,18,05,22,11.10
2015,05,18,05,23,11.10
2015,05,18,05,24,11.10
2015,05,18,05,25,11.10
2015,05,18,05,26,11.10
2015,05,18,05,27,11.10
2015,05,18,05,28,11.10
2015,05,18,05,29,11.10
2015,05,18,05,30,11.10
2015,05,18,05,31,11.10
2015,05,18,05,32,11.20
2015,05,18,05,33,11.20
2015,05,18,05,34,11.20
2015,05,18,05,35,11.20
2015,05,18,05,36,11.20
2015,05,18,05,37,11.20
2015,05,18,05,38,11.20
2015,05,18,05,39,11.20
2015,05,18,05,40,11.30
2015,05,18,05,41,11.30
2015,05,18,05,42,11.30
2015,05,18,05,43,11.30
2015,05,18,05,44,11.30
2015,05,18,05,45,11.40
2015,05,18,05,46,11.40
2015,05,18,05,47,11.50
2015,05,18,05,48,11.50
2015,05,18,05,49,11.60
2015,05,18,05,50,11.70
2015,05,18,05,51,11.80
2015,05,18,05,52,11.80
2015,05,18,05,53,11.90
2015,05,18,05,54,12.00
2015,05,18,05,55,12.10
2015,05,18,05,56,12.10
2015,05,18,05,57,12.20
2015,05,18,05,58,12.30
2015,05,18,05,59,12.30
2015,05,18,06,00,12.40
2015,05,18,06,01,12.50
2015,05,18,06,02,12.50
2015,05,18,06,03,12.60
2015,05,18,06,04,12.60
2015,05,18,06,05,12.60
2015,05,18,06,06,12.60
2015,05,18,06,07,12.70
2015,05,18,06,08,12.70
2015,05,18,06,09,12.70
2015,05,18,06,10,12.70
2015,05,18,06,11,12.70
2015,05,18,06,12,12.80
2015,05,18,06,13,12.80
2015,05,18,06,14,12.80
2015,05,18,06,15,12.80
2015,05,18,06,16,12.80
2015,05,18,06,17,12.80
2015,05,18,06,18,12.80
2015,05,18,06,19,12.80
2015,05,18,06,20,12.80
2015,05,18,06,21,12.80
2015,05,18,06,22,12.80
2015,05,18,06,23,12.80
2015,05,18,06,24,12.70
2015,05,18,06,25,12.60
2015,05,18,06,26,12.60
2015,05,18,06,27,12.50
2015,05,18,06,28,12.40
2015,05,18,06,29,12.40
2015,05,18,06,30,12.30
2015,05,18,06,31,12.30
2015,05,18,06,32,12.30
2015,05,18,06,33,12.30
2015,05,18,06,34,12.30
2015,05,18,06,35,12.30
2015,05,18,06,36,12.20
2015,05,18,06,37,12.20
2015,05,18,06,38,12.20
2015,05,18,06,39,12.20
2015,05,18,06,40,12.20
2015,05,18,06,41,12.20
2015,05,18,06,42,12.20
2015,05,18,06,43,12.20
2015,05,18,06,44,12.20
2015,05,18,06,45,12.20
2015,05,18,06,46,12.20
2015,05,18,06,47,12.20
2015,05,18,06,48,12.20
2015,05,18,06,49,12.20
2015,05,18,06,50,12.20
2015,05,18,06,51,12.20
2015,05,18,06,52,12.20
2015,05,18,06,53,12.20
2015,05,18,06,54,12.20
2015,05,18,06,55,12.20
2015,05,18,06,56,12.20
2015,05,18,06,57,12.20
2015,05,18,06,58,12.20
2015,05,18,06,59,12.20
2015,05,18,07,00,12.20
2015,05,18,07,01,12.30
2015,05,18,07,02,12.20
2015,05,18,07,03,12.20
2015,05,18,07,04,12.20
2015,05,18,07,05,12.20
2015,05,18,07,06,12.20
2015,05,18,07,07,12.20
2015,05,18,07,08,12.20
2015,05,18,07,09,12.20
2015,05,18,07,10,12.20
2015,05,18,07,11,12.20
2015,05,18,07,12,12.30
2015,05,18,07,13,12.30
2015,05,18,07,14,12.30
2015,05,18,07,15,12.30
2015,05,18,07,16,12.30
2015,05,18,07,17,12.30
2015,05,18,07,18,12.30
2015,05,18,07,19,12.30
2015,05,18,07,20,12.30
2015,05,18,07,21,12.30
2015,05,18,07,22,12.30
2015,05,18,07,23,12.30
2015,05,18,07,24,12.30
2015,05,18,07,25,12.30
2015,05,18,07,26,12.30
2015,05,18,07,27,12.30
2015,05,18,07,28,12.30
2015,05,18,07,29,12.30
2015,05,18,07,30,12.30
2015,05,18,07,31,12.30
2015,05,18,07,32,12.30
2015,05,18,07,33,12.30
2015,05,18,07,34,12.30
2015,05,18,07,35,12.30
2015,05,18,07,36,12.30
2015,05,18,07,37,12.30
2015,05,18,07,38,12.30
2015,05,18,07,39,12.30
2015,05,18,07,40,12.30
2015,05,18,07,41,12.30
2015,05,18,07,42,12.30
2015,05,18,07,43,12.30
2015,05,18,07,44,12.30
2015,05,18,07,45,12.30
2015,05,18,07,46,12.30
2015,05,18,07,47,12.30
2015,05,18,07,48,12.30
2015,05,18,07,49,12.30
2015,05,18,07,50,12.30
2015,05,18,07,51,12.30
2015,05,18,07,52,12.30
2015,05,18,07,53,12.30
2015,05,18,07,54,12.30
2015,05,18,07,55,12.30
2015,05,18,07,56,12.30
2015,05,18,07,57,12.30
2015,05,18,07,58,12.40
2015,05,18,07,59,12.40
2015,05,18,08,00,12.40
2015,05,18,08,01,12.40
2015,05,18,08,02,12.40
2015,05,18,08,03,12.40
2015,05,18,08,04,12.40
2015,05,18,08,05,12.40
2015,05,18,08,06,12.40
2015,05,18,08,07,12.40
2015,05,18,08,08,12.40
2015,05,18,08,09,12.40
2015,05,18,08,10,12.40
2015,05,18,08,11,12.40
2015,05,18,08,12,12.40
2015,05,18,08,13,12.40
2015,05,18,08,14,12.40
2015,05,18,08,15,12.40
2015,05,18,08,16,12.40
2015,05,18,08,17,12.40
2015,05,18,08,18,12.40
2015,05,18,08,19,12.40
2015,05,18,08,20,12.40
2015,05,18,08,21,12.40
2015,05,18,08,22,12.40
2015,05,18,08,23,12.40
2015,05,18,08,24,12.30
2015,05,18,08,25,12.40
2015,05,18,08,26,12.40
2015,05,18,08,27,12.40
2015,05,18,08,28,12.30
2015,05,18,08,29,12.30
2015,05,18,08,30,12.30
2015,05,18,08,31,12.30
2015,05,18,08,32,12.30
2015,05,18,08,33,12.40
2015,05,18,08,34,12.30
2015,05,18,08,35,12.30
2015,05,18,08,36,12.30
2015,05,18,08,37,12.30
2015,05,18,08,38,12.40
2015,05,18,08,39,12.40
2015,05,18,08,40,12.40
2015,05,18,08,41,12.40
2015,05,18,08,42,12.40
2015,05,18,08,43,12.40
2015,05,18,08,44,12.40
2015,05,18,08,45,12.40
2015,05,18,08,46,12.40
2015,05,18,08,47,12.40
2015,05,18,08,48,12.40
2015,05,18,08,49,12.40
2015,05,18,08,50,12.50
2015,05,18,08,51,12.50
2015,05,18,08,52,12.50
2015,05,18,08,53,12.50
2015,05,18,08,54,12.60
2015,05,18,08,55,12.60
2015,05,18,08,56,12.60
2015,05,18,08,57,12.60
2015,05,18,08,58,12.60
2015,05,18,08,59,12.60
2015,05,18,09,00,12.70
2015,05,18,09,01,12.70
2015,05,18,09,02,12.70
2015,05,18,09,03,12.70
2015,05,18,09,04,12.70
2015,05,18,09,05,12.80
2015,05,18,09,06,12.80
2015,05,18,09,07,12.90
2015,05,18,09,08,12.90
2015,05,18,09,09,12.90
2015,05,18,09,10,13.00
2015,05,18,09,11,13.00
2015,05,18,09,12,13.10
2015,05,18,09,13,13.10
2015,05,18,09,14,13.20
2015,05,18,09,15,13.20
2015,05,18,09,16,13.30
2015,05,18,09,17,13.30
2015,05,18,09,18,13.30
2015,05,18,09,19,13.40
2015,05,18,09,20,13.40
2015,05,18,09,21,13.50
2015,05,18,09,22,13.50
2015,05,18,09,23,13.60
2015,05,18,09,24,13.60
2015,05,18,09,25,13.70
2015,05,18,09,26,13.70
2015,05,18,09,27,13.70
2015,05,18,09,28,13.80
2015,05,18,09,29,13.80
2015,05,18,09,30,13.90
2015,05,18,09,31,13.90
2015,05,18,09,32,14.00
2015,05,18,09,33,14.00
2015,05,18,09,34,14.10
2015,05,18,09,35,14.10
2015,05,18,09,36,14.10
2015,05,18,09,37,14.20
2015,05,18,09,38,14.20
2015,05,18,09,39,14.30
2015,05,18,09,40,14.30
2015,05,18,09,41,14.30
2015,05,18,09,42,14.40
2015,05,18,09,43,14.40
2015,05,18,09,44,14.50
2015,05,18,09,45,14.50
2015,05,18,09,46,14.60
2015,05,18,09,47,14.60
2015,05,18,09,48,14.60
2015,05,18,09,49,14.60
2015,05,18,09,50,14.70
2015,05,18,09,51,14.70
2015,05,18,09,52,14.80
2015,05,18,09,53,14.90
2015,05,18,09,54,15.00
2015,05,18,09,55,15.00
2015,05,18,09,56,15.00
2015,05,18,09,57,15.00
2015,05,18,09,58,15.00
2015,05,18,09,59,15.00
2015,05,18,10,00,15.00
2015,05,18,10,01,15.00
2015,05,18,10,02,15.10
2015,05,18,10,03,15.20
2015,05,18,10,04,15.30
2015,05,18,10,05,15.30
2015,05,18,10,06,15.40
2015,05,18,10,07,15.40
2015,05,18,10,08,15.40
2015,05,18,10,09,15.50
2015,05,18,10,10,15.50
2015,05,18,10,11,15.60
2015,05,18,10,12,15.60
2015,05,18,10,13,15.70
2015,05,18,10,14,15.70
2015,05,18,10,15,15.80
2015,05,18,10,16,15.80
2015,05,18,10,17,15.90
2015,05,18,10,18,15.90
2015,05,18,10,19,15.90
2015,05,18,10,20,15.80
2015,05,18,10,21,15.80
2015,05,18,10,22,15.80
2015,05,18,10,23,15.80
2015,05,18,10,24,15.90
2015,05,18,10,25,16.00
2015,05,18,10,26,16.10
2015,05,18,10,27,16.30
2015,05,18,10,28,16.50
2015,05,18,10,29,16.60
2015,05,18,10,30,16.70
2015,05,18,10,31,16.80
2015,05,18,10,32,17.00
2015,05,18,10,33,17.10
2015,05,18,10,34,17.20
2015,05,18,10,35,17.20
2015,05,18,10,36,17.10
2015,05,18,10,37,17.10
2015,05,18,10,38,17.10
2015,05,18,10,39,17.00
2015,05,18,10,40,17.10
2015,05,18,10,41,17.10
2015,05,18,10,42,17.20
2015,05,18,10,43,17.20
2015,05,18,10,44,17.20
2015,05,18,10,45,17.10
2015,05,18,10,46,17.10
2015,05,18,10,47,17.10
2015,05,18,10,48,17.10
2015,05,18,10,49,17.20
2015,05,18,10,50,17.20
2015,05,18,10,51,17.30
2015,05,18,10,52,17.50
2015,05,18,10,53,17.60
2015,05,18,10,54,17.70
2015,05,18,10,55,17.70
2015,05,18,10,56,17.70
2015,05,18,10,57,17.70
2015,05,18,10,58,17.70
2015,05,18,10,59,17.70
2015,05,18,11,00,17.70
2015,05,18,11,01,17.70
2015,05,18,11,02,17.60
2015,05,18,11,03,17.60
2015,05,18,11,04,17.60
2015,05,18,11,05,17.50
2015,05,18,11,06,17.50
2015,05,18,11,07,17.50
2015,05,18,11,08,17.50
2015,05,18,11,09,17.50
2015,05,18,11,10,17.40
2015,05,18,11,11,17.40
2015,05,18,11,12,17.40
2015,05,18,11,13,17.40
2015,05,18,11,14,17.30
2015,05,18,11,15,17.30
2015,05,18,11,16,17.30
2015,05,18,11,17,17.40
2015,05,18,11,18,17.40
2015,05,18,11,19,17.50
2015,05,18,11,20,17.60
2015,05,18,11,21,17.60
2015,05,18,11,22,17.60
2015,05,18,11,23,17.60
2015,05,18,11,24,17.60
2015,05,18,11,25,17.60
2015,05,18,11,26,17.50
2015,05,18,11,27,17.50
2015,05,18,11,28,17.40
2015,05,18,11,29,17.40
2015,05,18,11,30,17.40
2015,05,18,11,31,17.40
2015,05,18,11,32,17.40
2015,05,18,11,33,17.50
2015,05,18,11,34,17.50
2015,05,18,11,35,17.60
2015,05,18,11,36,17.60
2015,05,18,11,37,17.70
2015,05,18,11,38,17.70
2015,05,18,11,39,17.70
2015,05,18,11,40,17.70
2015,05,18,11,41,17.70
2015,05,18,11,42,17.70
2015,05,18,11,43,17.70
2015,05,18,11,44,17.70
2015,05,18,11,45,17.70
2015,05,18,11,46,17.70
2015,05,18,11,47,17.60
2015,05,18,11,48,17.60
2015,05,18,11,49,17.60
2015,05,18,11,50,17.60
2015,05,18,11,51,17.50
2015,05,18,11,52,17.50
2015,05,18,11,53,17.50
2015,05,18,11,54,17.50
2015,05,18,11,55,17.60
2015,05,18,11,56,17.60
2015,05,18,11,57,17.70
2015,05,18,11,58,17.80
2015,05,18,11,59,18.00
2015,05,18,12,00,18.10
2015,05,18,12,01,18.20
2015,05,18,12,02,18.40
2015,05,18,12,03,18.50
2015,05,18,12,04,18.60
2015,05,18,12,05,18.80
2015,05,18,12,06,18.80
2015,05,18,12,07,18.80
2015,05,18,12,08,18.90
2015,05,18,12,09,18.90
2015,05,18,12,10,18.90
2015,05,18,12,11,18.90
2015,05,18,12,12,18.80
2015,05,18,12,13,18.80
2015,05,18,12,14,18.80
2015,05,18,12,15,18.80
2015,05,18,12,16,18.80
2015,05,18,12,17,18.80
2015,05,18,12,18,18.80
2015,05,18,12,19,18.80
2015,05,18,12,20,18.80
2015,05,18,12,21,18.70
2015,05,18,12,22,18.60
2015,05,18,12,23,18.60
2015,05,18,12,24,18.60
2015,05,18,12,25,18.50
2015,05,18,12,26,18.50
2015,05,18,12,27,18.40
2015,05,18,12,28,18.40
2015,05,18,12,29,18.50
2015,05,18,12,30,18.50
2015,05,18,12,31,18.60
2015,05,18,12,32,18.70
2015,05,18,12,33,18.90
2015,05,18,12,34,18.90
2015,05,18,12,35,18.90
2015,05,18,12,36,18.80
2015,05,18,12,37,18.90
2015,05,18,12,38,18.90
2015,05,18,12,39,18.90
2015,05,18,12,40,19.00
2015,05,18,12,41,19.00
2015,05,18,12,42,19.00
2015,05,18,12,43,19.00
2015,05,18,12,44,19.10
2015,05,18,12,45,19.10
2015,05,18,12,46,19.20
2015,05,18,12,47,19.20
2015,05,18,12,48,19.20
2015,05,18,12,49,19.20
2015,05,18,12,50,19.20
2015,05,18,12,51,19.20
2015,05,18,12,52,19.20
2015,05,18,12,53,19.20
2015,05,18,12,54,19.20
2015,05,18,12,55,19.10
2015,05,18,12,56,19.10
2015,05,18,12,57,19.00
2015,05,18,12,58,19.00
2015,05,18,12,59,18.90
2015,05,18,13,00,18.90
2015,05,18,13,01,18.80
2015,05,18,13,02,18.80
2015,05,18,13,03,18.80
2015,05,18,13,04,18.80
2015,05,18,13,05,18.80
2015,05,18,13,06,18.90
2015,05,18,13,07,18.90
2015,05,18,13,08,19.00
2015,05,18,13,09,19.10
2015,05,18,13,10,19.30
2015,05,18,13,11,19.40
2015,05,18,13,12,19.50
2015,05,18,13,13,19.60
2015,05,18,13,14,19.70
2015,05,18,13,15,19.70
2015,05,18,13,16,19.70
2015,05,18,13,17,19.60
2015,05,18,13,18,19.50
2015,05,18,13,19,19.40
2015,05,18,13,20,19.30
2015,05,18,13,21,19.30
2015,05,18,13,22,19.30
2015,05,18,13,23,19.30
2015,05,18,13,24,19.40
2015,05,18,13,25,19.40
2015,05,18,13,26,19.40
2015,05,18,13,27,19.50
2015,05,18,13,28,19.60
2015,05,18,13,29,19.60
2015,05,18,13,30,19.70
2015,05,18,13,31,19.70
2015,05,18,13,32,19.70
2015,05,18,13,33,19.80
2015,05,18,13,34,19.80
2015,05,18,13,35,20.00
2015,05,18,13,36,20.10
2015,05,18,13,37,20.30
2015,05,18,13,38,20.40
2015,05,18,13,39,20.50
2015,05,18,13,40,20.60
2015,05,18,13,41,20.70
2015,05,18,13,42,20.70
2015,05,18,13,43,20.70
2015,05,18,13,44,20.70
2015,05,18,13,45,20.70
2015,05,18,13,46,20.70
2015,05,18,13,47,20.70
2015,05,18,13,48,20.70
2015,05,18,13,49,20.60
2015,05,18,13,50,20.60
2015,05,18,13,51,20.50
2015,05,18,13,52,20.40
2015,05,18,13,53,20.40
2015,05,18,13,54,20.40
2015,05,18,13,55,20.40
2015,05,18,13,56,20.40
2015,05,18,13,57,20.30
2015,05,18,13,58,20.20
2015,05,18,13,59,20.10
2015,05,18,14,00,20.10
2015,05,18,14,01,20.00
2015,05,18,14,02,19.90
2015,05,18,14,03,19.90
2015,05,18,14,04,19.90
2015,05,18,14,05,19.80
2015,05,18,14,06,19.80
2015,05,18,14,07,19.80
2015,05,18,14,08,19.80
2015,05,18,14,09,19.80
2015,05,18,14,10,19.80
2015,05,18,14,11,19.80
2015,05,18,14,12,19.80
2015,05,18,14,13,19.80
2015,05,18,14,14,19.90
2015,05,18,14,15,20.00
2015,05,18,14,16,20.00
2015,05,18,14,17,20.00
2015,05,18,14,18,19.90
2015,05,18,14,19,19.90
2015,05,18,14,20,19.90
2015,05,18,14,21,19.90
2015,05,18,14,22,20.00
2015,05,18,14,23,20.00
2015,05,18,14,24,20.00
2015,05,18,14,25,20.10
2015,05,18,14,26,20.10
2015,05,18,14,27,20.10
2015,05,18,14,28,20.20
2015,05,18,14,29,20.20
2015,05,18,14,30,20.20
2015,05,18,14,31,20.20
2015,05,18,14,32,20.20
2015,05,18,14,33,20.30
2015,05,18,14,34,20.30
2015,05,18,14,35,20.30
2015,05,18,14,36,20.30
2015,05,18,14,37,20.30
2015,05,18,14,38,20.20
2015,05,18,14,39,20.10
2015,05,18,14,40,20.00
2015,05,18,14,41,19.90
2015,05,18,14,42,19.90
2015,05,18,14,43,19.90
2015,05,18,14,44,19.90
2015,05,18,14,45,19.80
2015,05,18,14,46,19.80
2015,05,18,14,47,19.70
2015,05,18,14,48,19.60
2015,05,18,14,49,19.60
2015,05,18,14,50,19.50
2015,05,18,14,51,19.50
2015,05,18,14,52,19.50
2015,05,18,14,53,19.40
2015,05,18,14,54,19.40
2015,05,18,14,55,19.40
2015,05,18,14,56,19.40
2015,05,18,14,57,19.40
2015,05,18,14,58,19.50
2015,05,18,14,59,19.60
2015,05,18,15,00,19.70
2015,05,18,15,01,19.80
2015,05,18,15,02,19.80
2015,05,18,15,03,19.90
2015,05,18,15,04,20.00
2015,05,18,15,05,20.10
2015,05,18,15,06,20.10
2015,05,18,15,07,20.10
2015,05,18,15,08,20.10
2015,05,18,15,09,20.10
2015,05,18,15,10,20.10
2015,05,18,15,11,20.10
2015,05,18,15,12,20.10
2015,05,18,15,13,20.10
2015,05,18,15,14,20.10
2015,05,18,15,15,20.10
2015,05,18,15,16,20.10
2015,05,18,15,17,20.20
2015,05,18,15,18,20.20
2015,05,18,15,19,20.30
2015,05,18,15,20,20.40
2015,05,18,15,21,20.40
2015,05,18,15,22,20.50
2015,05,18,15,23,20.60
2015,05,18,15,24,20.60
2015,05,18,15,25,20.70
2015,05,18,15,26,20.70
2015,05,18,15,27,20.80
2015,05,18,15,28,20.90
2015,05,18,15,29,21.00
2015,05,18,15,30,21.10
2015,05,18,15,31,21.20
2015,05,18,15,32,21.20
2015,05,18,15,33,21.20
2015,05,18,15,34,21.20
2015,05,18,15,35,21.10
2015,05,18,15,36,21.00
2015,05,18,15,37,20.90
2015,05,18,15,38,20.80
2015,05,18,15,39,20.80
2015,05,18,15,40,20.80
2015,05,18,15,41,20.80
2015,05,18,15,42,20.90
2015,05,18,15,43,21.00
2015,05,18,15,44,21.10
2015,05,18,15,45,21.10
2015,05,18,15,46,21.20
2015,05,18,15,47,21.20
2015,05,18,15,48,21.30
2015,05,18,15,49,21.30
2015,05,18,15,50,21.30
2015,05,18,15,51,21.30
2015,05,18,15,52,21.30
2015,05,18,15,53,21.30
2015,05,18,15,54,21.20
2015,05,18,15,55,21.10
2015,05,18,15,56,21.10
2015,05,18,15,57,21.00
2015,05,18,15,58,21.00
2015,05,18,15,59,21.00
2015,05,18,16,00,20.90
2015,05,18,16,01,20.80
2015,05,18,16,02,20.70
2015,05,18,16,03,20.60
2015,05,18,16,04,20.60
2015,05,18,16,05,20.50
2015,05,18,16,06,20.50
2015,05,18,16,07,20.50
2015,05,18,16,08,20.50
2015,05,18,16,09,20.40
2015,05,18,16,10,20.40
2015,05,18,16,11,20.40
2015,05,18,16,12,20.50
2015,05,18,16,13,20.40
2015,05,18,16,14,20.40
2015,05,18,16,15,20.30
2015,05,18,16,16,20.30
2015,05,18,16,17,20.20
2015,05,18,16,18,20.20
2015,05,18,16,19,20.10
2015,05,18,16,20,20.00
2015,05,18,16,21,20.00
2015,05,18,16,22,19.90
2015,05,18,16,23,19.80
2015,05,18,16,24,19.80
2015,05,18,16,25,19.70
2015,05,18,16,26,19.60
2015,05,18,16,27,19.60
2015,05,18,16,28,19.50
2015,05,18,16,29,19.50
2015,05,18,16,30,19.40
2015,05,18,16,31,19.40
2015,05,18,16,32,19.30
2015,05,18,16,33,19.30
2015,05,18,16,34,19.30
2015,05,18,16,35,19.20
2015,05,18,16,36,19.10
2015,05,18,16,37,19.10
2015,05,18,16,38,19.00
2015,05,18,16,39,19.00
2015,05,18,16,40,18.90
2015,05,18,16,41,18.90
2015,05,18,16,42,18.80
2015,05,18,16,43,18.80
2015,05,18,16,44,18.80
2015,05,18,16,45,18.70
2015,05,18,16,46,18.70
2015,05,18,16,47,18.70
2015,05,18,16,48,18.70
2015,05,18,16,49,18.60
2015,05,18,16,50,18.60
2015,05,18,16,51,18.60
2015,05,18,16,52,18.60
2015,05,18,16,53,18.60
2015,05,18,16,54,18.60
2015,05,18,16,55,18.60
2015,05,18,16,56,18.60
2015,05,18,16,57,18.60
2015,05,18,16,58,18.60
2015,05,18,16,59,18.60
2015,05,18,17,00,18.60
2015,05,18,17,01,18.70
2015,05,18,17,02,18.70
2015,05,18,17,03,18.70
2015,05,18,17,04,18.70
2015,05,18,17,05,18.70
2015,05,18,17,06,18.80
2015,05,18,17,07,18.80
2015,05,18,17,08,18.90
2015,05,18,17,09,19.00
2015,05,18,17,10,19.10
2015,05,18,17,11,19.20
2015,05,18,17,12,19.30
2015,05,18,17,13,19.50
2015,05,18,17,14,19.60
2015,05,18,17,15,19.70
2015,05,18,17,16,19.90
2015,05,18,17,17,20.00
2015,05,18,17,18,20.20
2015,05,18,17,19,20.30